102P/Shoemaker 1 (2021)

Japanese version
Home page
Updated on March 27, 2022

---------------------------------------------------------------------

* Profile

* Pictures

* Orbital Elements

Epoch 2022 Jan. 21.0 TT = JDT 2459600.5
T 2021 Jan. 22.51779 TT                                 Rudenko
q   2.0704202            (2000.0)            P               Q
n   0.13231620     Peri.   20.58034     +0.98757164     -0.03215338
a   3.8141173      Node   339.36552     -0.09218988     +0.67426781
e   0.4571692      Incl.   25.88452     +0.12729214     +0.73778661
P   7.45
From 435 observations 1999 Dec. 31-2022 Jan. 6, mean residual 0".9.
     Nongravitational parameters A1 = -0.54, A2 = -0.1324.

* Magnitudes Graph

        m1 = 14.5 + 5 log d + 10.0 log r

---------------------------------------------------------------------

The orbital elements are published on M.P.E.C. 2022-C56.
The magnitudes graphs are made with Comet for Windows.

---------------------------------------------------------------------

Copyright(C) Seiichi Yoshida (comet@aerith.net). All rights reserved.